Regional Weather Roundup
Issued by NWS Charleston, SC

Current Version | Previous Version | Text Only | Print | Product List | Glossary Off
Versions: 1 2 3 4 5 6 7 8 9 10 11 12 13 14 15 16 17 18 19 20 21 22 23 24 25 26 27 28 29 30 31 32 33 34 35 36 37 38 39 40 41 42 43 44 45 46 47 48 49 50
000 ASUS42 KCHS 241011 RWRCHS REGIONAL WEATHER ROUNDUP NATIONAL WEATHER SERVICE CHARLESTON SC 500 AM EST FRI FEB 24 2017 NOTE: "FAIR" INDICATES FEW OR NO CLOUDS BELOW 12,000 FEET WITH NO SIGNIFICANT WEATHER AND/OR OBSTRUCTIONS TO VISIBILITY. NOT ALL STATIONS ARE QUALITY CONTROLLED. USE DATA WITH CAUTION... ESPECIALLY DEWPOINT OBSERVATIONS. SCZ027-030-031-034>040-042>050-241100- ...SOUTHEAST SOUTH CAROLINA... CITY SKY/WX TMP DP RH WIND PRES REMARKS N CHARLESTON CLEAR 58 56 93 NE7 29.86S WATERFRONT PRK N/A 60 60 100 N7 29.85S MOUNT PLEASANT FAIR 57 57 100 CALM 29.87R FOG JOHNS ISLAND FAIR 59 59 100 N7 29.86S PINOPOLIS N/A 57 57 100 VRB2 29.79R MONCKS CORNER FAIR 52 52 100 CALM 29.87S SUMMERVILLE FOG 52 52 100 CALM 29.88S VSB 1/2 BEAUFORT MCAS PTCLDY 59 59 100 NE6 29.85F BEAUFORT ARPT FAIR 59 59 100 NE7 29.85S HILTON HEAD IS CLEAR 61 61 100 N6 29.85F WALTERBORO MOSUNNY 52 52 100 CALM 29.87S FOG ALLENDALE FAIR 55 55 100 CALM 29.86F FOG ...SOUTHERN MIDLANDS AND PEE DEE... CITY SKY/WX TMP DP RH WIND PRES REMARKS GEORGETOWN FAIR 55 55 100 CALM 29.88S KINGSTREE FAIR 48 46 93 CALM 29.89S ORANGEBURG CLEAR 57 56 96 CALM 29.88R BARNWELL FAIR 55 54 94 CALM 29.88S AIKEN FAIR 50 48 93 CALM 29.92S MANNING FAIR 54 50 87 MISG 29.88S COLUMBIA CLEAR 51 48 89 CALM 29.88S SUMTER CLEAR 54 52 95 NE6 29.87S FLORENCE CLEAR 54 54 100 NE5 29.90S MYRTLE BEACH CLEAR 57 56 96 N5 29.88S N MYRTLE BEACH CLEAR 57 57 100 NE6 29.88S $$ GAZ063-065-086>088-099>101-113>116-118-119-134>141-150-241100- ...SOUTHEAST GEORGIA... CITY SKY/WX TMP DP RH WIND PRES REMARKS SAVANNAH ARPT CLEAR 58 56 93 N6 29.85R HUNTER AAF CLEAR 60 60 100 N6 29.82S FORT STEWART PTCLDY 58 57 95 N5 29.82S STATESBORO PTCLDY 54 32 42 CALM 29.87S SYLVANIA N/A N/A N/A N/A CALM 29.87S FOG CLAXTON FAIR N/A N/A N/A CALM 29.86S ...CSRA...CENTRAL AND FAR SOUTHEAST GEORGIA... CITY SKY/WX TMP DP RH WIND PRES REMARKS THOMSON CLEAR 50 50 100 CALM 29.93S AUGUSTA-BUSH CLEAR 52 50 93 CALM 29.88S AUGUSTA-DANIEL CLEAR 60 55 83 E5 29.88F SWAINSBORO FAIR 59 59 100 NE3 29.88S VIDALIA PTCLDY 59 59 100 NE3 29.86S EASTMAN N/A 50 50 100 CALM 29.89S FOG HAZLEHURST FAIR 59 59 100 CALM 29.85S ALMA PTCLDY 58 58 100 CALM 29.84S FOG WAYCROSS PTCLDY 58 58 100 CALM 29.84R FOG JESUP FAIR 61 59 94 NE5 29.85R BAXLEY FAIR 59 59 100 NE3 29.85S FOG BRUNSWICK CLEAR 63 63 100 NE3 29.83S SAINT SIMONS CLEAR 64 61 90 NE10 29.81F $$ SCZ027-028-034-036>038-045-046-048>050-GAZ119-141-241100- ...LAKE AND SUPPLEMENTAL COASTAL OBSERVATIONS... STATION/POSITION TIME TEMP WIND PRES WAVE SWELL AIR SEA DIR/SP/G HT/PER HT/PER/DIR (UTC) (F) (DEG/KT/KT) (MB) (FT/S) (FT/S/D) WINYAH BAY 0845 59 20/ 4 1011.0 LAKE MURRAY 0920 57 CALM 1011.9 ACE BASIN NERRS NOT AVBL FORT PULASKI 0948 62 62 50/ 6/ 9 1010.5F SAPELO ISLAND 0900 62 20/ 6 1010.0 $$ ANZ835-935-AMZ111-154-330-350-352-354-370-450-454-472-241100- ...C-MAN AND BUOY OBSERVATIONS... STATION/POSITION TIME TEMP WIND PRES WAVE SWELL AIR SEA DIR/SP/G HT/PER HT/PER/DIR (UTC) (F) (DEG/KT/KT) (MB) (FT/S) (FT/S/D) BUOY 41004 0850 70 70 60/ 10/ 12 1009.7 9/11 8/130/11 BUOY 41008 0850 63 62 20/ 14/ 16 1009.1 7/10 5/110/10 FOLLY BEACH CMAN 0900 61 340/ 5/ 5 1011.3F CAPERS NEARSHORE 0908 61 60 40/ 10/ 14 1010.5F FRIPP NEARSHORE 0908 62 61 20/ 8/ 12 1010.3F STATION/POSITION TIME TEMP WIND PRES WAVE SWELL AIR SEA DIR/SP/G HT/PER HT/PER/DIR (UTC) (F) (DEG/KT/KT) (MB) (FT/S) (FT/S/D) 5E ST. MARYS GA 0930 63 N/A 6/10 2/110/11 FRYING PAN BUOY 0950 71 72 90/ 12/ 17 1010.9S 8/10 7/140/10 BUOY 41025 0950 70 73 120/ 14/ 17 1012.7S 7/ 8 7/140/ 8 CAPE LOOKOUT NC 0900 63 10/ 4/ 5 1012.1F BUOY 41002 0950 69 69 80/ 23/ 27 1007.7R 11/ 9 7/120/ 9 BUOY 41010 NOT AVBL ST AUGUSTINE FL 1000 65 66 360/ 15/ 15 1009.3R $$

USA.gov is the U.S. government's official web portal to all federal, state and local government web resources and services.